Location: Unspecified
(0.0000°N, 0.0000°E)
Time: 14:49:56
(UTC+00:00)

COSMOS 2467 - Pass Details

Date: 10 June 2023
Orbit: 1492 x 1496 km, 82.5° (Epoch: 26 September)

Event Time Altitude Azimuth Distance (km) Brightness Sun altitude
Rises 22:02:36 0° 330° (NNW) 4,614 10.5 -53.4°
Reaches altitude 10° 22:06:07 10° 318° (NW) 3,636 9.9 -54.1°
Enters shadow 22:10:02 21° 294° (WNW) 2,842 9.1 -54.8°
